STARLINK-34674

Last updated on Tue Oct 07 2025 00:02:05 GMT+0000 (Coordinated Universal Time)

1 65526U 25200G 25279.50003471 .00151871 00000+0 27490-2 0 9994 2 65526 97.6037 346.2075 0001462 105.4003 348.3758 15.49099413 5919
UTC large
Height (km)
Speed (km/s)
/
Latitude / Longitude
Inclination (degrees)
Orbital Period (minutes)
Azimuth
Elevation
Range (km)
Doppler Factor

Next 0 passes for location: London (51.5072 / 0.1276)

Sorry there are no passes over London.
STARLINK-34674